EW2692 Weather Reports


Display with metric or nautical units.
time (UTC)temp
F
wind
direction
speed
MPH
gust
MPH
rain 1hr
in
rain 24hr
in
rain mn
in
humidity
%
barometer
mb
20260509013017 62 319 5.0 14.0 0.00 0.00 0.00 41 934.3
20260509011517 64 311 5.0 13.0 0.00 0.00 0.00 39 934.2
20260509010020 64 302 6.0 16.0 0.00 0.00 0.00 39 934.1
20260509004517 64 298 4.0 10.0 0.00 0.00 0.00 39 933.9
20260509003016 64 302 3.0 10.0 0.00 0.00 0.00 40 933.6
20260509001514 65 295 8.0 17.0 0.00 0.00 0.00 40 933.8
20260509000014 65 302 8.0 19.0 0.00 0.00 0.00 41 934.1
20260508234513 65 302 10.0 21.0 0.00 0.00 0.00 41 934.4
20260508233012 68 273 10.0 20.0 0.00 0.00 0.00 33 933.3
20260508231511 69 292 11.0 22.0 0.00 0.00 0.00 30 933.1
20260508230009 70 277 11.0 20.0 0.00 0.00 0.00 29 933.0
20260508224511 69 267 10.0 19.0 0.00 0.00 0.00 31 933.3
20260508223006 70 262 11.0 18.0 0.00 0.00 0.00 30 933.6
20260508221508 70 276 8.0 16.0 0.00 0.00 0.00 30 933.7
20260508220001 68 300 9.0 20.0 0.00 0.00 0.00 31 933.9
20260508214501 67 271 10.0 18.0 0.00 0.00 0.00 32 934.2
20260508213106 69 320 10.0 18.0 0.00 0.00 0.00 28 934.3
20260508211559 70 315 11.0 25.0 0.00 0.00 0.00 25 934.2
20260508210058 71 306 15.0 29.0 0.00 0.00 0.00 23 934.1
20260508204558 71 269 10.0 21.0 0.00 0.00 0.00 22 933.9
20260508203158 71 280 8.0 18.0 0.00 0.00 0.00 24 933.9
20260508201556 72 271 6.0 24.0 0.00 0.00 0.00 24 934.0
20260508200055 71 277 10.0 20.0 0.00 0.00 0.00 24 934.1
20260508194555 72 271 8.0 23.0 0.00 0.00 0.00 25 934.4
20260508193107 70 290 10.0 20.0 0.00 0.00 0.00 26 934.6
20260508191557 70 286 10.0 17.0 0.00 0.00 0.00 26 934.8
20260508190104 71 294 10.0 20.0 0.00 0.00 0.00 25 935.0
20260508184548 70 272 8.0 19.0 0.00 0.00 0.00 26 935.2
20260508183104 69 264 7.0 15.0 0.00 0.00 0.00 27 935.6
20260508181549 70 271 8.0 18.0 0.00 0.00 0.00 26 935.8
20260508180057 70 286 10.0 19.0 0.00 0.00 0.00 26 936.0
20260508174559 68 273 7.0 17.0 0.00 0.00 0.00 27 936.3
20260508173041 68 287 7.0 16.0 0.00 0.00 0.00 28 936.4
20260508171539 68 254 8.0 16.0 0.00 0.00 0.00 29 936.5
20260508170038 67 245 6.0 15.0 0.00 0.00 0.00 30 936.8
20260508164544 66 217 5.0 12.0 0.00 0.00 0.00 30 937.0
20260508163032 65 199 3.0 9.0 0.00 0.00 0.00 31 937.3
20260508161528 64 221 3.0 9.0 0.00 0.00 0.00 31 937.4
20260508160025 63 197 3.0 10.0 0.00 0.00 0.00 33 937.5
20260508154523 62 221 3.0 8.0 0.00 0.00 0.00 34 937.7
20260508153030 61 263 5.0 9.0 0.00 0.00 0.00 37 937.8
20260508151516 59 228 3.0 8.0 0.00 0.00 0.00 39 938.1
20260508150012 57 256 3.0 9.0 0.00 0.00 0.00 42 938.1
20260508144509 55 259 3.0 8.0 0.00 0.00 0.00 44 938.2
20260508143006 53 259 3.0 7.0 0.00 0.00 0.00 45 938.1
20260508141608 51 272 3.0 7.0 0.00 0.00 0.00 47 938.2
20260508140056 49 269 2.0 4.0 0.00 0.00 0.00 48 938.3
20260508134553 48 265 1.0 3.0 0.00 0.00 0.00 49 938.4
20260508133048 47 281 0.0 3.0 0.00 0.00 0.00 50 938.4
20260508131557 45 325 0.0 1.0 0.00 0.00 0.00 55 938.0
20260508130044 43 325 0.0 1.0 0.00 0.00 0.00 58 938.0
20260508124543 40 325 0.0 0.0 0.00 0.00 0.00 62 938.0
20260508123042 36 325 0.0 1.0 0.00 0.00 0.00 67 937.9
20260508121541 33 325 0.0 1.0 0.00 0.00 0.00 70 937.7
20260508120052 32 325 0.0 1.0 0.00 0.00 0.00 73 937.7
20260508114551 31 325 0.0 0.0 0.00 0.00 0.00 75 937.5
20260508113034 31 325 0.0 0.0 0.00 0.00 0.00 74 937.3
20260508111534 31 325 0.0 0.0 0.00 0.00 0.00 73 937.1
20260508110032 32 325 0.0 0.0 0.00 0.00 0.00 71 937.0
20260508104529 34 325 0.0 1.0 0.00 0.00 0.00 67 936.8
20260508103025 35 325 0.0 0.0 0.00 0.00 0.00 66 936.7
20260508101520 35 325 0.0 0.0 0.00 0.00 0.00 65 936.4
20260508100019 36 325 0.0 0.0 0.00 0.00 0.00 64 936.2
20260508094515 36 325 0.0 2.0 0.00 0.00 0.00 62 936.2
20260508093011 37 30 0.0 1.0 0.00 0.00 0.00 63 935.9
20260508091513 37 30 0.0 2.0 0.00 0.00 0.00 62 935.8
20260508090009 38 30 0.0 3.0 0.00 0.00 0.00 64 935.7
20260508084502 38 34 1.0 3.0 0.00 0.00 0.00 65 935.5
20260508083104 39 300 0.0 0.0 0.00 0.00 0.00 68 935.4
20260508081602 40 300 0.0 1.0 0.00 0.00 0.00 69 935.2
20260508080051 41 300 0.0 3.0 0.00 0.00 0.00 71 935.1
20260508074550 43 296 1.0 4.0 0.00 0.00 0.00 70 934.9
20260508073044 46 288 1.0 4.0 0.00 0.00 0.00 68 934.5
20260508071542 46 185 0.0 1.0 0.00 0.00 0.00 62 934.3
20260508070039 45 185 0.0 1.0 0.00 0.00 0.00 59 934.2
20260508064540 44 185 0.0 1.0 0.00 0.00 0.00 55 934.2
20260508063052 44 185 0.0 1.0 0.00 0.00 0.00 53 934.3
20260508061532 44 185 0.0 2.0 0.00 0.00 0.00 54 934.4
20260508060028 43 186 0.0 0.0 0.00 0.00 0.00 51 934.5
20260508054528 43 186 0.0 2.0 0.00 0.00 0.00 50 934.5
20260508053027 43 189 0.0 2.0 0.00 0.00 0.00 50 934.4
20260508051525 43 189 0.0 2.0 0.00 0.00 0.00 49 934.6
20260508050033 45 189 0.0 2.0 0.00 0.00 0.00 46 934.7
20260508044524 46 190 0.0 2.0 0.00 0.00 0.00 45 934.8
20260508043024 47 190 0.0 2.0 0.00 0.00 0.00 44 934.9
20260508041523 47 277 0.0 1.0 0.00 0.00 0.00 44 934.8
20260508040033 48 277 0.0 1.0 0.00 0.00 0.00 43 934.7
20260508034522 49 278 0.0 2.0 0.00 0.00 0.00 41 934.8
20260508033022 51 279 0.0 2.0 0.00 0.00 0.00 39 934.8
20260508031521 52 290 0.0 1.0 0.00 0.00 0.00 37 934.9
20260508030023 54 290 0.0 2.0 0.00 0.00 0.00 35 935.1
20260508024519 57 290 0.0 1.0 0.00 0.00 0.00 33 934.9
20260508023020 58 290 0.0 0.0 0.00 0.00 0.00 32 934.9
20260508021518 60 290 0.0 1.0 0.00 0.00 0.00 31 934.8
20260508020027 61 290 0.0 1.0 0.00 0.00 0.00 29 934.6
20260508014518 62 290 0.0 2.0 0.00 0.00 0.00 27 934.7